CW0364 Weather Reports


Display with metric or nautical units.
time (UTC)temp
F
wind
direction
speed
MPH
gust
MPH
rain 1hr
in
rain 24hr
in
rain mn
in
humidity
%
barometer
mb
20260510044003 68 120 4.0 7.0 0.00 0.00 0.00 73 1012.6
20260510043218 68 116 4.0 7.0 0.00 0.00 0.00 73 1012.4
20260510042003 68 117 4.0 7.0 0.00 0.00 0.00 72 1012.4
20260510041003 68 117 3.0 6.0 0.00 0.00 0.00 71 1012.3
20260510040003 68 114 4.0 7.0 0.00 0.00 0.00 71 1012.3
20260510035003 68 116 3.0 6.0 0.00 0.00 0.00 70 1012.4
20260510034003 69 118 4.0 7.0 0.00 0.00 0.00 70 1012.4
20260510033003 69 118 4.0 7.0 0.00 0.00 0.00 68 1012.3
20260510032004 69 117 4.0 7.0 0.00 0.00 0.00 67 1012.4
20260510031003 70 119 5.0 8.0 0.00 0.00 0.00 66 1012.1
20260510030004 70 124 5.0 9.0 0.00 0.00 0.00 64 1012.1
20260510025218 71 127 6.0 9.0 0.00 0.00 0.00 63 1012.0
20260510024003 71 133 5.0 8.0 0.00 0.00 0.00 62 1011.9
20260510023218 72 132 4.0 7.0 0.00 0.00 0.00 61 1011.8
20260510022003 72 130 6.0 10.0 0.00 0.00 0.00 60 1011.6
20260510021003 72 126 6.0 10.0 0.00 0.00 0.00 59 1011.5
20260510020004 72 128 6.0 9.0 0.00 0.00 0.00 59 1011.4
20260510015003 72 127 5.0 8.0 0.00 0.00 0.00 59 1011.4
20260510014217 72 125 5.0 8.0 0.00 0.00 0.00 59 1011.1
20260510013003 73 127 6.0 10.0 0.00 0.00 0.00 59 1011.3
20260510012003 74 132 4.0 8.0 0.00 0.00 0.00 59 1011.5
20260510011003 74 129 5.0 8.0 0.00 0.00 0.00 58 1011.4
20260510010003 75 137 4.0 8.0 0.00 0.00 0.00 57 1011.0
20260510005003 76 136 4.0 8.0 0.00 0.00 0.00 55 1011.0
20260510004003 77 134 4.0 9.0 0.00 0.00 0.00 54 1010.9
20260510003003 78 131 5.0 9.0 0.00 0.00 0.00 53 1010.6
20260510002003 79 139 4.0 9.0 0.00 0.00 0.00 51 1010.4
20260510001003 79 138 4.0 9.0 0.00 0.00 0.00 49 1010.5
20260510000003 80 134 4.0 8.0 0.00 0.00 0.00 48 1010.2
20260509235003 80 142 3.0 9.0 0.00 0.00 0.00 48 1010.4
20260509234003 81 139 3.0 8.0 0.00 0.00 0.00 48 1010.6
20260509233003 81 136 5.0 10.0 0.00 0.00 0.00 47 1010.4
20260509232003 81 139 3.0 8.0 0.00 0.00 0.00 48 1010.5
20260509231003 81 158 2.0 6.0 0.00 0.00 0.00 48 1010.3
20260509230003 82 139 4.0 11.0 0.00 0.00 0.00 49 1010.3
20260509225003 81 132 4.0 9.0 0.00 0.00 0.00 49 1010.1
20260509224004 81 132 6.0 13.0 0.00 0.00 0.00 48 1009.9
20260509223003 82 137 5.0 11.0 0.00 0.00 0.00 49 1010.1
20260509222004 83 145 3.0 8.0 0.00 0.00 0.00 47 1010.0
20260509221003 84 145 3.0 9.0 0.00 0.00 0.00 45 1009.8
20260509220003 84 124 3.0 8.0 0.00 0.00 0.00 41 1009.8
20260509215003 85 360 3.0 9.0 0.00 0.00 0.00 36 1009.9
20260509214003 86 219 1.0 3.0 0.00 0.00 0.00 34 1009.6
20260509213003 86 108 1.0 4.0 0.00 0.00 0.00 34 1009.7
20260509212217 85 36 3.0 10.0 0.00 0.00 0.00 33 1009.9
20260509211217 85 359 2.0 7.0 0.00 0.00 0.00 34 1010.1
20260509210003 85 38 4.0 9.0 0.00 0.00 0.00 34 1010.4
20260509205003 85 65 2.0 9.0 0.00 0.00 0.00 33 1010.4
20260509204003 85 74 4.0 11.0 0.00 0.00 0.00 32 1010.7
20260509203217 85 56 3.0 10.0 0.00 0.00 0.00 34 1010.6
20260509202217 85 84 2.0 7.0 0.00 0.00 0.00 34 1010.7
20260509201003 85 86 5.0 13.0 0.00 0.00 0.00 32 1011.1
20260509200003 85 38 2.0 7.0 0.00 0.00 0.00 39 1010.9
20260509195003 84 98 3.0 7.0 0.00 0.00 0.00 39 1010.9
20260509194003 84 129 3.0 8.0 0.00 0.00 0.00 37 1010.7
20260509193003 84 342 4.0 9.0 0.00 0.00 0.00 42 1010.9
20260509192003 83 6 6.0 10.0 0.00 0.00 0.00 41 1010.9
20260509191003 83 7 4.0 11.0 0.00 0.00 0.00 42 1011.0
20260509190003 83 18 4.0 9.0 0.00 0.00 0.00 44 1010.9
20260509185217 83 20 4.0 10.0 0.00 0.00 0.00 45 1011.1
20260509184216 83 101 3.0 9.0 0.00 0.00 0.00 47 1011.2
20260509183003 83 174 2.0 7.0 0.00 0.00 0.00 46 1011.1
20260509182003 82 141 4.0 8.0 0.00 0.00 0.00 50 1011.4
20260509181003 82 140 2.0 9.0 0.00 0.00 0.00 48 1011.5
20260509180003 82 126 4.0 10.0 0.00 0.00 0.00 51 1011.7
20260509175218 81 117 4.0 10.0 0.00 0.00 0.00 51 1011.8
20260509174003 81 19 4.0 11.0 0.00 0.00 0.00 52 1011.7
20260509173003 80 97 4.0 9.0 0.00 0.00 0.00 57 1011.9
20260509172003 81 50 3.0 9.0 0.00 0.00 0.00 52 1011.7
20260509171218 81 337 2.0 6.0 0.00 0.00 0.00 59 1011.7
20260509170218 79 64 2.0 6.0 0.00 0.00 0.00 60 1011.6
20260509165003 79 356 4.0 10.0 0.00 0.00 0.00 60 1011.6
20260509164003 80 337 4.0 8.0 0.00 0.00 0.00 62 1011.6
20260509163003 80 341 2.0 8.0 0.00 0.00 0.00 66 1011.6
20260509162003 78 109 1.0 3.0 0.00 0.00 0.00 67 1011.7
20260509161003 77 27 1.0 6.0 0.00 0.00 0.00 69 1011.8
20260509160003 76 7 3.0 6.0 0.00 0.00 0.00 71 1011.8
20260509155003 76 306 3.0 8.0 0.00 0.00 0.00 70 1011.6
20260509154218 75 333 2.0 7.0 0.00 0.00 0.00 74 1011.7
20260509153003 75 301 2.0 7.0 0.00 0.00 0.00 74 1011.6
20260509152003 74 285 2.0 7.0 0.00 0.00 0.00 77 1011.5
20260509151003 72 31 1.0 4.0 0.00 0.00 0.00 80 1011.8
20260509150003 70 249 2.0 6.0 0.00 0.00 0.00 81 1011.7
20260509145003 70 291 2.0 4.0 0.00 0.00 0.00 82 1012.1
20260509144003 69 224 2.0 4.0 0.00 0.00 0.00 84 1012.0
20260509143217 69 236 1.0 4.0 0.00 0.00 0.00 84 1011.8
20260509142003 68 265 1.0 4.0 0.00 0.00 0.00 86 1012.0
20260509141217 67 207 1.0 4.0 0.00 0.00 0.00 88 1012.1
20260509140004 67 212 2.0 6.0 0.00 0.00 0.00 88 1012.3
20260509135217 67 196 3.0 6.0 0.00 0.00 0.00 90 1012.1
20260509134003 66 198 2.0 6.0 0.00 0.00 0.00 91 1012.2
20260509133004 65 199 2.0 4.0 0.00 0.00 0.00 90 1011.9
20260509132003 65 234 1.0 3.0 0.00 0.00 0.00 91 1011.8
20260509131003 65 213 0.0 2.0 0.00 0.00 0.00 93 1011.7
20260509130003 63 201 0.0 2.0 0.00 0.00 0.00 94 1011.6
20260509125003 62 198 1.0 2.0 0.00 0.00 0.00 96 1011.8
20260509124003 60 261 1.0 3.0 0.00 0.00 0.00 97 1011.7
20260509123218 59 266 0.0 3.0 0.00 0.00 0.00 97 1011.5
20260509122003 57 0 0.0 0.0 0.00 0.00 0.00 97 1011.4
20260509121003 56 0 0.0 0.0 0.00 0.00 0.00 97 1011.1
20260509120003 56 0 0.0 0.0 0.00 0.00 0.00 97 1010.9
20260509115003 55 0 0.0 0.0 0.00 0.00 0.00 97 1011.0
20260509114003 55 0 0.0 0.0 0.00 0.00 0.00 97 1010.7
20260509113004 55 0 0.0 0.0 0.00 0.00 0.00 96 1010.7
20260509112003 56 0 0.0 0.0 0.00 0.00 0.00 96 1010.4
20260509111003 56 311 0.0 1.0 0.00 0.00 0.00 96 1010.4
20260509110003 56 209 0.0 2.0 0.00 0.00 0.00 96 1010.2
20260509105003 56 222 2.0 3.0 0.00 0.00 0.00 96 1010.2
20260509104003 56 264 0.0 1.0 0.00 0.00 0.00 96 1010.1
20260509103003 57 344 1.0 2.0 0.00 0.00 0.00 96 1010.0
20260509102003 57 19 2.0 4.0 0.00 0.00 0.00 97 1010.1
20260509101218 57 35 2.0 4.0 0.00 0.00 0.00 96 1010.1
20260509100004 57 55 0.0 1.0 0.00 0.00 0.00 96 1010.1
20260509095003 57 71 0.0 1.0 0.00 0.00 0.00 95 1010.0
20260509094004 57 1 0.0 1.0 0.00 0.00 0.00 95 1009.9
20260509093217 57 8 2.0 3.0 0.00 0.00 0.00 95 1009.9
20260509092003 57 28 1.0 2.0 0.00 0.00 0.00 95 1009.9
20260509091003 57 36 0.0 2.0 0.00 0.00 0.00 95 1010.0
20260509090003 57 32 1.0 2.0 0.00 0.00 0.00 95 1010.2
20260509085003 57 19 1.0 2.0 0.00 0.00 0.00 94 1010.3
20260509084003 58 6 1.0 2.0 0.00 0.00 0.00 94 1010.2
20260509083003 58 13 1.0 3.0 0.00 0.00 0.00 94 1010.4
20260509082003 59 356 1.0 4.0 0.00 0.00 0.00 94 1010.4
20260509081004 59 357 2.0 3.0 0.00 0.00 0.00 94 1010.7
20260509080004 59 352 3.0 4.0 0.00 0.00 0.00 95 1011.0
20260509075003 59 337 3.0 4.0 0.00 0.00 0.00 93 1010.5
20260509074003 60 289 2.0 3.0 0.00 0.00 0.00 93 1010.5
20260509073003 60 294 2.0 4.0 0.00 0.00 0.00 94 1010.3
20260509072003 59 303 0.0 2.0 0.00 0.00 0.00 93 1010.4
20260509071218 58 269 0.0 1.0 0.00 0.00 0.00 91 1010.3
20260509070003 59 226 0.0 1.0 0.00 0.00 0.00 91 1010.2
20260509065003 60 307 0.0 1.0 0.00 0.00 0.00 89 1010.2
20260509064003 60 294 0.0 2.0 0.00 0.00 0.00 89 1010.0
20260509063003 61 298 2.0 4.0 0.00 0.00 0.00 90 1009.9
20260509062003 60 285 2.0 4.0 0.00 0.00 0.00 89 1010.1
20260509061003 61 259 0.0 2.0 0.00 0.00 0.00 87 1010.2
20260509060218 61 256 1.0 3.0 0.00 0.00 0.00 86 1010.0
20260509055003 62 265 3.0 7.0 0.00 0.00 0.00 86 1010.1
20260509054003 62 294 3.0 6.0 0.00 0.00 0.00 86 1009.8
20260509053003 62 305 3.0 4.0 0.00 0.00 0.00 85 1009.9
20260509052008 63 298 3.0 8.0 0.00 0.00 0.00 84 1009.9
20260509051003 64 276 3.0 8.0 0.00 0.00 0.00 84 1009.9
20260509050003 63 185 3.0 9.0 0.00 0.00 0.00 84 1009.5
20260509045003 62 188 2.0 9.0 0.00 0.00 0.00 84 1009.5